DW8548 Weather Reports


time (UTC)temp
F
wind
direction
speed
knots
gust
knots
rain 1hr
in
rain 24hr
in
rain mn
in
humidity
%
barometer
mb
20230208170104 68 151 0.9 5.2 0.00 0.00 0.00 82 1011.5
20230208164603 68 142 0.9 5.2 0.00 0.00 0.00 83 1011.5
20230208163804 69 159 0.9 2.6 0.00 0.00 0.00 83 1011.5
20230208163304 69 149 1.7 2.6 0.00 0.00 0.00 83 1011.5
20230208163100 68 162 0.9 3.5 0.00 0.00 0.00 82 1011.5
20230208162804 69 174 0.9 2.6 0.00 0.00 0.00 83 1011.5
20230208162305 69 155 0.9 1.7 0.00 0.00 0.00 82 1011.5
20230208161805 69 148 0.9 2.6 0.00 0.00 0.00 82 1011.6
20230208161601 68 138 0.0 1.7 0.00 0.00 0.00 82 1011.6
20230208161304 69 143 0.0 1.7 0.00 0.00 0.00 82 1011.7
20230208160804 69 149 0.9 1.7 0.00 0.00 0.00 82 1011.7
20230208160304 69 152 0.9 1.7 0.00 0.00 0.00 82 1011.8
20230208160103 69 158 0.0 1.7 0.00 0.00 0.00 81 1011.8
20230208155804 70 153 0.0 1.7 0.00 0.00 0.00 82 1011.9
20230208154556 70 0 0.0 0.9 0.00 0.00 0.00 81 1011.9
20230208153102 70 0 0.0 1.7 0.00 0.00 0.00 80 1011.9
20230208151604 71 140 0.9 2.6 0.00 0.00 0.00 79 1011.9
20230208150107 71 128 0.9 4.3 0.00 0.00 0.00 79 1012.0
20230208144559 72 159 0.9 5.2 0.00 0.00 0.00 78 1012.1
20230208143103 72 146 2.6 7.0 0.00 0.00 0.00 77 1012.2
20230208142804 73 180 2.6 7.0 0.00 0.00 0.00 78 1012.3
20230208142305 73 191 1.7 7.0 0.00 0.00 0.00 78 1012.3
20230208141804 73 181 3.5 6.1 0.00 0.00 0.00 78 1012.4
20230208141558 72 148 0.9 4.3 0.00 0.00 0.00 78 1012.2
20230208141304 73 180 1.7 4.3 0.00 0.00 0.00 78 1012.3
20230208140804 73 176 1.7 6.1 0.00 0.00 0.00 77 1012.4
20230208140304 73 175 2.6 5.2 0.00 0.00 0.00 77 1012.3
20230208140106 73 176 2.6 7.0 0.00 0.00 0.00 77 1012.3
20230208135805 73 182 4.3 7.0 0.00 0.00 0.00 77 1012.3
20230208135306 73 182 2.6 7.0 0.00 0.00 0.00 78 1012.4
20230208134805 73 161 4.3 8.7 0.00 0.00 0.00 78 1012.4
20230208134559 72 221 3.5 7.8 0.00 0.00 0.00 78 1012.3
20230208134304 73 182 4.3 6.1 0.00 0.00 0.00 78 1012.4
20230208133102 72 196 2.6 7.8 0.00 0.00 0.00 78 1012.5
20230208131603 72 173 3.5 8.7 0.00 0.00 0.00 78 1012.4
20230208130102 72 201 2.6 7.0 0.00 0.00 0.00 78 1012.4
20230208125804 72 197 2.6 6.1 0.00 0.00 0.00 80 1012.5
20230208125306 72 190 3.5 7.0 0.00 0.00 0.00 80 1012.4
20230208124806 72 164 2.6 6.1 0.00 0.00 0.00 80 1012.3
20230208124600 72 190 2.6 9.6 0.00 0.00 0.00 80 1012.2
20230208124305 72 184 4.3 7.0 0.00 0.00 0.00 80 1012.3
20230208123807 72 172 4.3 10.4 0.00 0.00 0.00 79 1012.2
20230208123308 72 196 3.5 7.8 0.00 0.00 0.00 79 1012.2
20230208123104 72 175 2.6 9.6 0.00 0.00 0.00 79 1012.2
20230208122808 72 179 4.3 10.4 0.00 0.00 0.00 79 1012.2
20230208122306 72 183 4.3 8.7 0.00 0.00 0.00 78 1012.2
20230208121806 72 182 2.6 7.0 0.00 0.00 0.00 78 1012.1
20230208121625 72 174 3.5 8.7 0.00 0.00 0.00 78 1012.0
20230208120806 72 187 4.3 7.8 0.00 0.00 0.00 78 1012.1
20230208120305 72 191 5.2 10.4 0.00 0.00 0.00 78 1012.1
20230208120103 72 190 4.3 13.9 0.00 0.00 0.00 77 1012.1
20230208115806 72 191 6.1 13.9 0.00 0.00 0.00 77 1012.1
20230208115305 72 188 6.1 12.2 0.00 0.00 0.00 76 1012.1
20230208114805 72 169 5.2 13.0 0.00 0.00 0.00 76 1012.1
20230208114600 72 186 6.1 14.8 0.00 0.00 0.00 75 1012.1
20230208114305 72 190 5.2 14.8 0.00 0.00 0.00 76 1012.1
20230208113806 72 196 4.3 10.4 0.00 0.00 0.00 76 1012.0
20230208113306 72 178 5.2 8.7 0.00 0.00 0.00 76 1012.0
20230208113100 72 159 4.3 13.0 0.00 0.00 0.00 76 1012.0
20230208112805 72 198 4.3 11.3 0.00 0.00 0.00 76 1012.0
20230208112306 72 188 7.0 13.0 0.00 0.00 0.00 76 1012.0
20230208111805 72 185 6.1 10.4 0.00 0.00 0.00 76 1012.1
20230208111601 72 177 4.3 12.2 0.00 0.00 0.00 75 1012.0
20230208111306 72 187 4.3 10.4 0.00 0.00 0.00 75 1012.1
20230208110806 72 177 6.1 12.2 0.00 0.00 0.00 75 1012.0
20230208110305 72 189 6.1 11.3 0.00 0.00 0.00 75 1012.0
20230208110111 72 165 6.1 12.2 0.00 0.00 0.00 74 1011.9
20230208105806 73 203 7.0 11.3 0.00 0.00 0.00 75 1011.9
20230208105307 73 186 5.2 12.2 0.00 0.00 0.00 75 1011.8
20230208104806 73 187 6.1 12.2 0.00 0.00 0.00 75 1011.9
20230208104558 72 154 5.2 13.0 0.00 0.00 0.00 74 1011.9
20230208104305 73 205 5.2 11.3 0.00 0.00 0.00 74 1012.0
20230208103806 73 198 6.1 13.0 0.00 0.00 0.00 74 1011.9
20230208103306 73 195 6.1 11.3 0.00 0.00 0.00 74 1011.9
20230208103101 73 177 6.1 12.2 0.00 0.00 0.00 73 1011.8
20230208102806 73 194 6.1 12.2 0.00 0.00 0.00 73 1011.8
20230208102306 74 183 5.2 10.4 0.00 0.00 0.00 74 1011.8
20230208101806 74 203 6.1 12.2 0.00 0.00 0.00 74 1011.7
20230208101605 73 192 4.3 13.0 0.00 0.00 0.00 74 1011.7
20230208101306 74 194 5.2 12.2 0.00 0.00 0.00 74 1011.6
20230208100806 74 183 6.1 12.2 0.00 0.00 0.00 74 1011.5
20230208100306 74 204 6.1 12.2 0.00 0.00 0.00 72 1011.6
20230208100105 74 153 6.1 12.2 0.00 0.00 0.00 72 1011.5
20230208095306 74 195 7.0 11.3 0.00 0.00 0.00 72 1011.4
20230208094806 75 191 7.0 17.4 0.00 0.00 0.00 71 1011.3
20230208094605 74 136 5.2 14.8 0.00 0.00 0.00 71 1011.1
20230208094305 75 191 6.1 14.8 0.00 0.00 0.00 72 1011.3
20230208093807 75 181 5.2 10.4 0.00 0.00 0.00 71 1011.1
20230208093322 75 188 6.1 11.3 0.00 0.00 0.00 71 1011.2
20230208093103 74 201 6.1 13.9 0.00 0.00 0.00 70 1011.3
20230208092805 75 193 7.0 13.0 0.00 0.00 0.00 69 1011.4
20230208092306 75 198 6.1 13.0 0.00 0.00 0.00 69 1011.3
20230208091806 75 178 6.1 12.2 0.00 0.00 0.00 69 1011.3
20230208091618 75 206 6.1 13.9 0.00 0.00 0.00 68 1011.3
20230208091306 75 193 7.0 13.0 0.00 0.00 0.00 68 1011.4
20230208090805 76 186 6.1 11.3 0.00 0.00 0.00 67 1011.4
20230208090306 76 197 6.1 10.4 0.00 0.00 0.00 68 1011.4
20230208090114 75 187 6.1 13.9 0.00 0.00 0.00 67 1011.3
20230208085805 76 200 6.1 13.0 0.00 0.00 0.00 68 1011.3
20230208085306 76 196 6.1 10.4 0.00 0.00 0.00 68 1011.3
20230208084806 76 175 7.0 13.0 0.00 0.00 0.00 67 1011.4
20230208084558 76 190 7.0 15.6 0.00 0.00 0.00 66 1011.4
20230208084306 76 187 7.8 15.6 0.00 0.00 0.00 65 1011.4
20230208083806 77 205 7.8 13.0 0.00 0.00 0.00 66 1011.3
20230208083307 77 201 7.0 12.2 0.00 0.00 0.00 64 1011.2
20230208083100 76 181 6.1 17.4 0.00 0.00 0.00 64 1011.2
20230208082806 77 194 5.2 11.3 0.00 0.00 0.00 65 1011.3
20230208082306 76 201 7.8 17.4 0.00 0.00 0.00 64 1011.3
20230208081805 77 196 7.8 17.4 0.00 0.00 0.00 64 1011.2
20230208081557 77 236 7.8 13.9 0.00 0.00 0.00 63 1011.2
20230208081306 78 200 7.8 13.9 0.00 0.00 0.00 62 1011.2
20230208080805 77 225 5.2 12.2 0.00 0.00 0.00 65 1011.2
20230208080307 78 197 7.8 12.2 0.00 0.00 0.00 64 1011.3
20230208080104 77 188 5.2 13.9 0.00 0.00 0.00 65 1011.2
20230208075806 77 220 7.8 13.9 0.00 0.00 0.00 64 1011.3
20230208075307 78 230 7.8 12.2 0.00 0.00 0.00 64 1011.3
20230208074806 78 207 6.1 13.9 0.00 0.00 0.00 63 1011.3
20230208074559 77 227 6.1 14.8 0.00 0.00 0.00 62 1011.1
20230208074306 77 196 6.1 13.9 0.00 0.00 0.00 66 1011.1
20230208073806 77 196 7.8 14.8 0.00 0.00 0.00 64 1011.2
20230208073307 78 211 7.8 13.9 0.00 0.00 0.00 62 1011.2
20230208073102 77 245 7.0 15.6 0.00 0.00 0.00 61 1011.1
20230208072805 78 197 7.8 14.8 0.00 0.00 0.00 64 1011.2
20230208072306 78 223 7.8 11.3 0.00 0.00 0.00 61 1011.2
20230208071805 79 208 5.2 14.8 0.00 0.00 0.00 62 1011.1
20230208071608 78 223 6.1 14.8 0.00 0.00 0.00 63 1011.1
20230208071305 78 213 7.0 13.9 0.00 0.00 0.00 62 1011.2
20230208070806 78 225 7.8 14.8 0.00 0.00 0.00 60 1011.2
20230208070307 78 220 7.0 13.0 0.00 0.00 0.00 60 1011.1
20230208070058 78 189 7.0 12.2 0.00 0.00 0.00 60 1011.0
20230208065806 79 235 6.1 11.3 0.00 0.00 0.00 60 1011.0
20230208065305 79 231 6.1 11.3 0.00 0.00 0.00 59 1011.1
20230208064806 79 210 6.1 12.2 0.00 0.00 0.00 60 1011.1
20230208064558 78 256 6.1 13.9 0.00 0.00 0.00 59 1011.0
20230208064305 78 205 5.2 11.3 0.00 0.00 0.00 63 1011.1
20230208063806 78 206 7.8 13.9 0.00 0.00 0.00 61 1011.1
20230208063305 78 207 7.8 14.8 0.00 0.00 0.00 60 1011.1
20230208063059 78 220 7.8 14.8 0.00 0.00 0.00 59 1011.1
20230208062805 78 214 7.8 13.0 0.00 0.00 0.00 60 1011.2
20230208062306 78 215 7.8 13.0 0.00 0.00 0.00 60 1011.2
20230208061806 78 214 7.0 15.6 0.00 0.00 0.00 60 1011.2
20230208061559 78 246 7.0 12.2 0.00 0.00 0.00 61 1011.1
20230208061305 78 202 7.0 12.2 0.00 0.00 0.00 61 1011.2
20230208060806 78 201 7.0 11.3 0.00 0.00 0.00 61 1011.2
20230208060306 78 207 7.8 14.8 0.00 0.00 0.00 60 1011.3
20230208060111 78 171 7.0 15.6 0.00 0.00 0.00 59 1011.3
20230208055806 78 202 6.1 13.0 0.00 0.00 0.00 61 1011.4
20230208055305 78 233 7.0 15.6 0.00 0.00 0.00 60 1011.5
20230208054806 79 222 7.0 15.6 0.00 0.00 0.00 60 1011.5
20230208054604 78 215 6.1 12.2 0.00 0.00 0.00 60 1011.5
20230208054305 78 215 7.0 12.2 0.00 0.00 0.00 61 1011.4
20230208053806 79 215 6.1 11.3 0.00 0.00 0.00 61 1011.6
20230208053307 79 226 6.1 11.3 0.00 0.00 0.00 60 1011.6
20230208053104 78 202 6.1 13.0 0.00 0.00 0.00 60 1011.5
20230208052805 78 221 6.1 12.2 0.00 0.00 0.00 60 1011.6
20230208052306 79 241 6.1 12.2 0.00 0.00 0.00 60 1011.6
20230208051805 79 222 7.8 13.0 0.00 0.00 0.00 60 1011.7
20230208051601 78 219 5.2 13.0 0.00 0.00 0.00 61 1011.7
20230208051305 78 221 7.0 13.0 0.00 0.00 0.00 61 1011.8
20230208050813 79 223 6.1 12.2 0.00 0.00 0.00 60 1011.8
20230208050305 79 201 6.1 11.3 0.00 0.00 0.00 60 1011.8
20230208050129 79 193 3.5 13.0 0.00 0.00 0.00 59 1011.6
20230208045806 79 211 5.2 12.2 0.00 0.00 0.00 61 1011.8
20230208045306 78 229 6.1 13.0 0.00 0.00 0.00 60 1011.8
20230208044805 79 224 7.8 14.8 0.00 0.00 0.00 58 1011.9
20230208044622 78 216 5.2 12.2 0.00 0.00 0.00 59 1011.8
20230208044305 79 221 6.1 12.2 0.00 0.00 0.00 60 1011.9
20230208043805 79 237 5.2 11.3 0.00 0.00 0.00 60 1012.0
20230208043306 79 217 5.2 10.4 0.00 0.00 0.00 59 1012.0
20230208043057 79 227 5.2 13.0 0.00 0.00 0.00 58 1011.9
20230208042808 79 214 5.2 10.4 0.00 0.00 0.00 60 1012.0
20230208042306 78 221 7.8 13.0 0.00 0.00 0.00 61 1012.0
20230208041805 79 213 6.1 11.3 0.00 0.00 0.00 58 1012.0
20230208041614 79 213 3.5 11.3 0.00 0.00 0.00 58 1012.0
20230208041306 79 216 2.6 10.4 0.00 0.00 0.00 61 1012.1
20230208040806 78 234 6.1 11.3 0.00 0.00 0.00 60 1012.1
20230208040306 79 225 5.2 10.4 0.00 0.00 0.00 59 1012.1
20230208040104 78 227 5.2 12.2 0.00 0.00 0.00 59 1012.0
20230208035805 79 223 6.1 11.3 0.00 0.00 0.00 59 1012.2
20230208035306 79 228 5.2 10.4 0.00 0.00 0.00 58 1012.1
20230208034805 80 209 4.3 11.3 0.00 0.00 0.00 57 1012.2
20230208034610 79 221 5.2 11.3 0.00 0.00 0.00 55 1012.1
20230208034305 79 216 6.1 11.3 0.00 0.00 0.00 55 1012.3
20230208033805 79 204 7.0 10.4 0.00 0.00 0.00 55 1012.3
20230208033305 79 235 5.2 12.2 0.00 0.00 0.00 56 1012.4
20230208033101 78 204 5.2 10.4 0.00 0.00 0.00 55 1012.3
20230208032805 79 187 6.1 10.4 0.00 0.00 0.00 56 1012.5
20230208032306 79 208 5.2 10.4 0.00 0.00 0.00 57 1012.5
20230208031806 79 190 6.1 10.4 0.00 0.00 0.00 57 1012.5
20230208031600 78 202 5.2 9.6 0.00 0.00 0.00 56 1012.5
20230208031306 79 214 6.1 10.4 0.00 0.00 0.00 56 1012.6
20230208030806 79 230 4.3 7.8 0.00 0.00 0.00 56 1012.5
20230208030305 79 192 5.2 8.7 0.00 0.00 0.00 56 1012.5
20230208030100 79 159 4.3 8.7 0.00 0.00 0.00 55 1012.4
20230208025805 80 202 4.3 7.8 0.00 0.00 0.00 57 1012.6
20230208025306 79 230 5.2 8.7 0.00 0.00 0.00 55 1012.6
20230208024806 80 226 4.3 7.8 0.00 0.00 0.00 54 1012.5
20230208024640 80 192 4.3 8.7 0.00 0.00 0.00 53 1012.5
20230208024306 81 216 4.3 7.8 0.00 0.00 0.00 55 1012.5
20230208023806 80 235 2.6 6.1 0.00 0.00 0.00 54 1012.5
20230208023307 81 190 4.3 7.0 0.00 0.00 0.00 52 1012.6
20230208023058 81 163 2.6 9.6 0.00 0.00 0.00 50 1012.5
20230208022806 81 169 3.5 10.4 0.00 0.00 0.00 48 1012.6
20230208021559 80 163 1.7 7.0 0.00 0.00 0.00 47 1012.6
20230208020111 80 181 1.7 7.0 0.00 0.00 0.00 50 1012.6
20230208014601 79 166 1.7 6.1 0.00 0.00 0.00 51 1012.7
20230208014305 79 163 2.6 6.1 0.00 0.00 0.00 52 1012.7
20230208013805 79 97 1.7 4.3 0.00 0.00 0.00 54 1012.8
20230208013305 78 164 1.7 6.1 0.00 0.00 0.00 54 1012.7
20230208013103 77 169 2.6 6.1 0.00 0.00 0.00 54 1012.7
20230208012805 78 154 1.7 2.6 0.00 0.00 0.00 53 1012.7
20230208012306 78 136 2.6 6.1 0.00 0.00 0.00 54 1012.8
20230208011806 78 149 1.7 5.2 0.00 0.00 0.00 54 1012.9
20230208011559 77 0 1.7 6.1 0.00 0.00 0.00 55 1012.9
20230208011305 78 82 2.6 5.2 0.00 0.00 0.00 54 1012.9
20230208010805 77 93 3.5 6.1 0.00 0.00 0.00 55 1013.0
20230208010305 77 141 1.7 2.6 0.00 0.00 0.00 56 1012.9
20230208010101 76 62 1.7 9.6 0.00 0.00 0.00 56 1013.0
20230208005307 77 153 0.9 5.2 0.00 0.00 0.00 57 1013.0
20230208004806 76 83 0.9 2.6 0.00 0.00 0.00 58 1013.0
20230208004558 75 137 1.7 7.0 0.00 0.00 0.00 58 1012.9
20230208004305 75 64 2.6 7.0 0.00 0.00 0.00 58 1013.0
20230208003805 75 51 1.7 5.2 0.00 0.00 0.00 60 1013.0
20230208003305 74 126 2.6 7.0 0.00 0.00 0.00 60 1013.0
20230208003110 74 79 3.5 8.7 0.00 0.00 0.00 59 1013.0
20230208002806 74 80 3.5 8.7 0.00 0.00 0.00 60 1013.0
20230208002306 74 95 1.7 2.6 0.00 0.00 0.00 61 1013.0
20230208001806 74 61 2.6 7.0 0.00 0.00 0.00 62 1013.0
20230208001559 73 76 1.7 7.8 0.00 0.00 0.00 62 1013.0
20230208001306 73 100 1.7 7.0 0.00 0.00 0.00 63 1013.0
20230208000805 73 149 2.6 7.8 0.00 0.00 0.00 62 1012.9
20230208000305 72 71 1.7 5.2 0.00 0.00 0.00 65 1012.8
20230208000103 71 182 0.9 7.8 0.00 0.00 0.00 64 1012.8
20230207235805 72 109 1.7 7.8 0.00 0.00 0.00 64 1012.9
20230207235306 71 129 2.6 6.1 0.00 0.00 0.00 65 1012.9
20230207234806 71 86 1.7 7.0 0.00 0.00 0.00 66 1012.9
20230207234559 70 53 1.7 7.0 0.00 0.00 0.00 65 1012.8
20230207234305 71 136 2.6 7.0 0.00 0.00 0.00 65 1012.9
20230207233805 70 127 0.9 4.3 0.00 0.00 0.00 67 1012.9
20230207233306 70 125 1.7 5.2 0.00 0.00 0.00 67 1012.9
20230207233059 69 130 1.7 4.3 0.00 0.00 0.00 67 1012.8
20230207232805 70 141 1.7 2.6 0.00 0.00 0.00 67 1012.9
20230207232306 70 151 0.9 2.6 0.00 0.00 0.00 68 1013.0
20230207231805 69 155 0.0 1.7 0.00 0.00 0.00 69 1013.0
20230207231603 69 0 0.0 1.7 0.00 0.00 0.00 68 1013.0
20230207231305 69 94 0.9 1.7 0.00 0.00 0.00 69 1013.0
20230207230805 69 82 0.9 4.3 0.00 0.00 0.00 70 1013.0
20230207230306 68 126 0.0 4.3 0.00 0.00 0.00 71 1013.0
20230207230107 67 0 0.0 3.5 0.00 0.00 0.00 71 1012.9
20230207225805 67 160 0.9 2.6 0.00 0.00 0.00 72 1012.9
20230207225306 67 159 0.9 2.6 0.00 0.00 0.00 73 1012.9
20230207224806 66 163 1.7 4.3 0.00 0.00 0.00 74 1012.8
20230207224555 66 142 0.0 2.6 0.00 0.00 0.00 74 1012.7
20230207224305 66 146 0.9 2.6 0.00 0.00 0.00 75 1012.7
20230207223806 65 155 0.9 1.7 0.00 0.00 0.00 76 1012.7
20230207223305 64 163 0.0 1.7 0.00 0.00 0.00 78 1012.7
20230207223108 64 0 0.0 1.7 0.00 0.00 0.00 78 1012.6
20230207222805 64 163 0.9 1.7 0.00 0.00 0.00 79 1012.7
20230207222306 64 163 0.9 1.7 0.00 0.00 0.00 79 1012.7
20230207221805 63 163 0.9 1.7 0.00 0.00 0.00 79 1012.6
20230207221605 63 163 0.0 1.7 0.00 0.00 0.00 78 1012.5
20230207221305 63 163 0.9 1.7 0.00 0.00 0.00 79 1012.6
20230207220805 63 163 0.9 1.7 0.00 0.00 0.00 79 1012.5
20230207220306 63 163 0.9 1.7 0.00 0.00 0.00 80 1012.5
20230207220102 63 163 0.0 1.7 0.00 0.00 0.00 79 1012.4
20230207215306 63 163 0.0 0.9 0.00 0.00 0.00 79 1012.4
20230207214805 63 163 0.0 1.7 0.00 0.00 0.00 80 1012.3
20230207214557 62 163 0.0 1.7 0.00 0.00 0.00 79 1012.2
20230207214306 63 163 0.0 1.7 0.00 0.00 0.00 80 1012.3
20230207213806 63 163 0.0 0.9 0.00 0.00 0.00 80 1012.2
20230207213306 63 163 0.0 0.9 0.00 0.00 0.00 79 1012.1
20230207213108 62 0 0.0 0.9 0.00 0.00 0.00 79 1012.0
20230207212805 63 163 0.0 0.9 0.00 0.00 0.00 79 1012.0
20230207212306 63 163 0.0 0.9 0.00 0.00 0.00 78 1012.0
20230207211806 63 163 0.0 1.7 0.00 0.00 0.00 78 1012.0
20230207211600 63 0 0.0 1.7 0.00 0.00 0.00 78 1012.0
20230207211305 63 163 0.0 0.9 0.00 0.00 0.00 78 1011.9
20230207210805 64 163 0.0 1.7 0.00 0.00 0.00 78 1011.9
20230207210306 64 163 0.9 1.7 0.00 0.00 0.00 77 1011.7
20230207210106 63 163 0.0 0.9 0.00 0.00 0.00 76 1011.7
20230207205805 64 163 0.0 0.0 0.00 0.00 0.00 76 1011.7
20230207205306 64 163 0.0 0.9 0.00 0.00 0.00 76 1011.7
20230207204805 64 163 0.0 1.7 0.00 0.00 0.00 76 1011.6
20230207204559 64 0 0.0 1.7 0.00 0.00 0.00 76 1011.6
20230207204306 64 163 0.9 1.7 0.00 0.00 0.00 76 1011.6
20230207203806 65 163 0.0 0.9 0.00 0.00 0.00 75 1011.6
20230207203307 65 163 0.0 1.7 0.00 0.00 0.00 74 1011.5
20230207203118 65 163 0.0 1.7 0.00 0.00 0.00 74 1011.5
20230207202806 65 163 0.9 1.7 0.00 0.00 0.00 74 1011.4
20230207202306 65 163 0.0 1.7 0.00 0.00 0.00 74 1011.3
20230207201805 66 163 0.0 1.7 0.00 0.00 0.00 73 1011.3
20230207201558 65 0 0.9 2.6 0.00 0.00 0.00 73 1011.2
20230207201306 66 152 0.9 2.6 0.00 0.00 0.00 73 1011.3
20230207200805 66 150 0.9 2.6 0.00 0.00 0.00 73 1011.3
20230207200305 66 139 0.9 1.7 0.00 0.00 0.00 73 1011.3
20230207200102 66 164 0.0 2.6 0.00 0.00 0.00 72 1011.2
20230207195805 66 164 0.9 2.6 0.00 0.00 0.00 72 1011.3
20230207195306 67 152 0.9 2.6 0.00 0.00 0.00 71 1011.2
20230207194805 67 148 0.9 1.7 0.00 0.00 0.00 71 1011.2
20230207194557 67 148 0.0 3.5 0.00 0.00 0.00 70 1011.1
20230207194305 67 138 0.9 2.6 0.00 0.00 0.00 71 1011.1
20230207193805 67 159 0.9 2.6 0.00 0.00 0.00 71 1011.1
20230207193305 67 156 0.9 2.6 0.00 0.00 0.00 71 1011.2
20230207193100 67 153 0.9 3.5 0.00 0.00 0.00 70 1011.2
20230207192805 68 152 0.9 1.7 0.00 0.00 0.00 70 1011.3
20230207192306 68 142 0.9 2.6 0.00 0.00 0.00 69 1011.3
20230207191805 68 154 2.6 6.1 0.00 0.00 0.00 69 1011.3
20230207191559 68 136 0.9 3.5 0.00 0.00 0.00 69 1011.2
20230207191305 68 145 0.9 2.6 0.00 0.00 0.00 69 1011.2
20230207190805 68 157 0.9 2.6 0.00 0.00 0.00 69 1011.2
20230207190312 68 153 0.9 4.3 0.00 0.00 0.00 69 1011.3
20230207190100 68 0 0.9 4.3 0.00 0.00 0.00 69 1011.2
20230207185805 68 149 1.7 2.6 0.00 0.00 0.00 69 1011.3
20230207185306 68 161 1.7 2.6 0.00 0.00 0.00 69 1011.3
20230207184805 68 144 1.7 2.6 0.00 0.00 0.00 69 1011.3
20230207184600 68 140 0.0 5.2 0.00 0.00 0.00 68 1011.3
20230207184306 69 143 1.7 2.6 0.00 0.00 0.00 68 1011.2
20230207183806 69 153 1.7 5.2 0.00 0.00 0.00 68 1011.3
20230207183306 69 157 0.9 2.6 0.00 0.00 0.00 68 1011.3
20230207183059 68 0 0.9 3.5 0.00 0.00 0.00 68 1011.3
20230207182805 69 156 0.9 2.6 0.00 0.00 0.00 68 1011.4
20230207182307 69 154 0.9 2.6 0.00 0.00 0.00 68 1011.3
20230207181806 69 144 1.7 2.6 0.00 0.00 0.00 68 1011.3
20230207181608 68 156 0.9 5.2 0.00 0.00 0.00 68 1011.3
20230207181305 69 147 1.7 5.2 0.00 0.00 0.00 68 1011.3
20230207180805 69 120 0.9 2.6 0.00 0.00 0.00 68 1011.4
20230207180305 69 143 0.9 2.6 0.00 0.00 0.00 68 1011.4
20230207180120 69 136 0.9 3.5 0.00 0.00 0.00 68 1011.4
20230207175805 69 153 0.9 1.7 0.00 0.00 0.00 68 1011.4
20230207175305 69 153 1.7 2.6 0.00 0.00 0.00 68 1011.4
20230207174806 69 150 1.7 4.3 0.00 0.00 0.00 68 1011.5
20230207174621 69 0 0.9 3.5 0.00 0.00 0.00 67 1011.4
20230207174306 70 144 0.9 2.6 0.00 0.00 0.00 67 1011.4
20230207173806 69 152 0.9 2.6 0.00 0.00 0.00 67 1011.5
20230207173306 70 139 0.9 2.6 0.00 0.00 0.00 67 1011.5
20230207173114 69 147 0.9 3.5 0.00 0.00 0.00 67 1011.5
20230207172306 70 149 0.9 1.7 0.00 0.00 0.00 67 1011.5
20230207171805 70 154 1.7 4.3 0.00 0.00 0.00 67 1011.5
20230207171611 70 166 0.9 4.3 0.00 0.00 0.00 66 1011.5
20230207171306 70 152 1.7 4.3 0.00 0.00 0.00 67 1011.5